When you browse on this site, cookies collect data to enhance your experience and personalize the content and advertising you see.
Visit our Privacy Policy to learn more. By continuing to use the site, you agree to this use of cookies and data.

Hourly Weather Innsbruck

Today, 12 July, Sunday

Time Temperature Precipitation Wind Pressure Humidity
00:00 +5°C° 0 mm 1 mps 600 mmHg 96%
01:00 +4°C° 0 mm 1 mps 600 mmHg 96%
02:00 +4°C° 0 mm 1 mps 599 mmHg 96%
03:00 +3°C° 0 mm 1 mps 599 mmHg 96%
04:00 +3°C° 0 mm 1 mps 599 mmHg 96%
05:00 +4°C° 0 mm 1 mps 599 mmHg 93%
06:00 +5°C° 0 mm 1 mps 600 mmHg 90%
07:00 +7°C° 0 mm 1 mps 601 mmHg 86%
08:00 +9°C° 0 mm 1 mps 602 mmHg 77%
09:00 +10°C° 0 mm 1 mps 602 mmHg 67%
10:00 +12°C° 0 mm 1 mps 603 mmHg 57%
11:00 +13°C° 0 mm 2 mps 603 mmHg 54%
12:00 +14°C° 0 mm 2 mps 604 mmHg 50%
13:00 +15°C° 0 mm 2 mps 604 mmHg 46%
14:00 +15°C° 0 mm 2 mps 604 mmHg 48%
15:00 +14°C° 0 mm 3 mps 604 mmHg 49%
16:00 +14°C° 0 mm 3 mps 603 mmHg 50%
17:00 +14°C° 0 mm 2 mps 603 mmHg 57%
18:00 +12°C° 0 mm 2 mps 603 mmHg 65%
19:00 +10°C° 0 mm 2 mps 602 mmHg 72%
20:00 +9°C° 0 mm 1 mps 601 mmHg 80%
21:00 +7°C° 0 mm 1 mps 600 mmHg 87%
22:00 +3°C° 0 mm 0 mps 599 mmHg 95%
23:00 +3°C° 0 mm 0 mps 599 mmHg 94%

Tomorrow, 13 July, Monday

Time Temperature Precipitation Wind Pressure Humidity
00:00 +4°C° 0 mm 1 mps 599 mmHg 94%
01:00 +4°C° 0 mm 1 mps 599 mmHg 93%
02:00 +5°C° 0 mm 1 mps 599 mmHg 93%
03:00 +5°C° 0 mm 1 mps 599 mmHg 92%
04:00 +5°C° 0 mm 1 mps 599 mmHg 92%
05:00 +6°C° 0 mm 1 mps 600 mmHg 87%
06:00 +7°C° 0 mm 0 mps 600 mmHg 81%
07:00 +9°C° 0 mm 0 mps 601 mmHg 75%
08:00 +11°C° 0 mm 1 mps 602 mmHg 68%
09:00 +13°C° 0 mm 1 mps 602 mmHg 60%
10:00 +15°C° 0 mm 1 mps 603 mmHg 52%
11:00 +16°C° 0 mm 2 mps 603 mmHg 49%
12:00 +16°C° 0 mm 2 mps 603 mmHg 46%
13:00 +17°C° 0 mm 2 mps 603 mmHg 43%
14:00 +16°C° 0.3 mm 2 mps 603 mmHg 50%
15:00 +16°C° 0.3 mm 2 mps 602 mmHg 56%
16:00 +15°C° 0.3 mm 2 mps 601 mmHg 63%
17:00 +14°C° 0.8 mm 2 mps 601 mmHg 72%
18:00 +12°C° 0.8 mm 2 mps 600 mmHg 80%
19:00 +11°C° 0.8 mm 1 mps 600 mmHg 88%
20:00 +10°C° 0.4 mm 1 mps 599 mmHg 91%
21:00 +8°C° 0.4 mm 1 mps 599 mmHg 93%
22:00 +6°C° 0.4 mm 0 mps 598 mmHg 95%
23:00 +5°C° 0.1 mm 0 mps 598 mmHg 96%

Day after tomorrow, 14 July, Tuesday

Time Temperature Precipitation Wind Pressure Humidity
00:00 +5°C° 0.1 mm 0 mps 598 mmHg 96%
01:00 +5°C° 0.1 mm 0 mps 598 mmHg 97%
02:00 +5°C° 0 mm 0 mps 597 mmHg 97%
03:00 +5°C° 0 mm 0 mps 597 mmHg 97%
04:00 +5°C° 0 mm 0 mps 597 mmHg 97%
05:00 +6°C° 0 mm 0 mps 597 mmHg 94%
06:00 +7°C° 0 mm 0 mps 598 mmHg 92%
07:00 +8°C° 0 mm 0 mps 598 mmHg 89%
08:00 +10°C° 0.2 mm 1 mps 599 mmHg 83%
09:00 +12°C° 0.2 mm 1 mps 599 mmHg 77%
10:00 +13°C° 0.2 mm 1 mps 599 mmHg 71%
11:00 +13°C° 0.6 mm 1 mps 599 mmHg 69%
12:00 +13°C° 0.6 mm 1 mps 599 mmHg 68%
13:00 +14°C° 0.6 mm 2 mps 599 mmHg 67%
14:00 +13°C° 0.9 mm 2 mps 599 mmHg 68%
15:00 +13°C° 0.9 mm 2 mps 599 mmHg 69%
16:00 +13°C° 0.9 mm 1 mps 598 mmHg 70%
17:00 +12°C° 0.8 mm 1 mps 598 mmHg 76%
18:00 +11°C° 0.8 mm 1 mps 598 mmHg 83%
19:00 +9°C° 0.8 mm 0 mps 598 mmHg 89%
20:00 +8°C° 0.2 mm 0 mps 597 mmHg 91%
21:00 +7°C° 0.2 mm 0 mps 597 mmHg 93%
22:00 +6°C° 0.2 mm 0 mps 596 mmHg 95%
23:00 +6°C° 0 mm 0 mps 596 mmHg 95%

15 July, Wednesday

Time Temperature Precipitation Wind Pressure Humidity
00:00 +6°C° 0 mm 1 mps 596 mmHg 95%
01:00 +6°C° 0 mm 1 mps 596 mmHg 96%
02:00 +6°C° 0 mm 1 mps 596 mmHg 95%
03:00 +5°C° 0 mm 1 mps 595 mmHg 95%
04:00 +5°C° 0 mm 1 mps 595 mmHg 94%
05:00 +6°C° 0 mm 1 mps 596 mmHg 92%
06:00 +7°C° 0 mm 0 mps 596 mmHg 89%
07:00 +8°C° 0 mm 0 mps 597 mmHg 86%
08:00 +10°C° 0.5 mm 1 mps 597 mmHg 82%
09:00 +12°C° 0.5 mm 1 mps 598 mmHg 77%
10:00 +13°C° 0.5 mm 1 mps 598 mmHg 73%
11:00 +13°C° 1 mm 1 mps 598 mmHg 75%
12:00 +13°C° 1 mm 1 mps 598 mmHg 77%
13:00 +13°C° 1 mm 1 mps 598 mmHg 79%
14:00 +12°C° 1.2 mm 1 mps 597 mmHg 83%
15:00 +11°C° 1.2 mm 1 mps 597 mmHg 88%
16:00 +10°C° 1.2 mm 1 mps 597 mmHg 93%
17:00 +10°C° 0.7 mm 1 mps 597 mmHg 94%
18:00 +9°C° 0.7 mm 1 mps 597 mmHg 95%
19:00 +8°C° 0.7 mm 0 mps 597 mmHg 96%
20:00 +7°C° 0.2 mm 0 mps 597 mmHg 96%
21:00 +7°C° 0.2 mm 0 mps 597 mmHg 97%
22:00 +8°C° 0.2 mm 1 mps 597 mmHg 97%
23:00 +8°C° 0.1 mm 1 mps 597 mmHg 97%

16 July, Thursday

Time Temperature Precipitation Wind Pressure Humidity
00:00 +8°C° 0.1 mm 1 mps 597 mmHg 98%
01:00 +8°C° 0.1 mm 1 mps 597 mmHg 98%
02:00 +7°C° 0.3 mm 1 mps 597 mmHg 98%
03:00 +7°C° 0.3 mm 1 mps 596 mmHg 98%
04:00 +7°C° 0.3 mm 1 mps 596 mmHg 98%
05:00 +7°C° 0.4 mm 1 mps 596 mmHg 98%
06:00 +7°C° 0.4 mm 1 mps 596 mmHg 98%
07:00 +7°C° 0.4 mm 1 mps 596 mmHg 97%
08:00 +7°C° 0.3 mm 1 mps 596 mmHg 96%
09:00 +7°C° 0.3 mm 1 mps 596 mmHg 95%
10:00 +7°C° 0.3 mm 1 mps 596 mmHg 94%
11:00 +6°C° 0.1 mm 2 mps 597 mmHg 94%
12:00 +7°C° 0.1 mm 2 mps 597 mmHg 93%
13:00 +7°C° 0.1 mm 2 mps 597 mmHg 93%
14:00 +7°C° 0.1 mm 2 mps 597 mmHg 91%
15:00 +7°C° 0.1 mm 2 mps 597 mmHg 90%
16:00 +7°C° 0.1 mm 2 mps 597 mmHg 89%
17:00 +7°C° 0.1 mm 2 mps 597 mmHg 90%
18:00 +7°C° 0.1 mm 2 mps 597 mmHg 91%
19:00 +6°C° 0.1 mm 2 mps 597 mmHg 93%
20:00 +6°C° 0.1 mm 2 mps 597 mmHg 94%
21:00 +6°C° 0.1 mm 1 mps 597 mmHg 95%
22:00 +5°C° 0.1 mm 1 mps 597 mmHg 96%
23:00 +5°C° 0 mm 1 mps 597 mmHg 96%

17 July, Friday

Time Temperature Precipitation Wind Pressure Humidity
00:00 +5°C° 0 mm 1 mps 597 mmHg 96%
01:00 +5°C° 0 mm 1 mps 596 mmHg 96%
02:00 +4°C° 0 mm 1 mps 596 mmHg 96%
03:00 +4°C° 0 mm 1 mps 596 mmHg 96%
04:00 +4°C° 0 mm 1 mps 596 mmHg 96%
05:00 +5°C° 0 mm 1 mps 597 mmHg 94%
06:00 +5°C° 0 mm 1 mps 597 mmHg 92%
07:00 +6°C° 0 mm 1 mps 598 mmHg 89%
08:00 +8°C° 0 mm 1 mps 598 mmHg 81%
09:00 +10°C° 0 mm 1 mps 599 mmHg 72%
10:00 +10°C° 0 mm 2 mps 600 mmHg 63%
11:00 +12°C° 0 mm 2 mps 600 mmHg 59%
12:00 +13°C° 0 mm 2 mps 600 mmHg 54%
13:00 +14°C° 0 mm 2 mps 601 mmHg 49%
14:00 +14°C° 0 mm 2 mps 600 mmHg 51%
15:00 +12°C° 0 mm 3 mps 600 mmHg 54%
16:00 +12°C° 0 mm 3 mps 600 mmHg 56%
17:00 +11°C° 0.1 mm 3 mps 600 mmHg 64%
18:00 +10°C° 0.1 mm 2 mps 599 mmHg 72%
19:00 +9°C° 0.1 mm 2 mps 599 mmHg 80%
20:00 +7°C° 0 mm 2 mps 599 mmHg 85%
21:00 +6°C° 0 mm 1 mps 598 mmHg 91%
22:00 +5°C° 0 mm 1 mps 598 mmHg 96%
23:00 +5°C° 0 mm 1 mps 598 mmHg 96%
Show more